Location: Newark
(44.9861°N, 0.2536°E)
Time: 20:05:39
(UTC+00:00)

HuskySat-1 - Pass Details

Date: 16 July 2020
Orbit: 457 x 471 km, 51.6° (Epoch: 11 August)

Event Time Altitude Azimuth Distance (km) Brightness Sun altitude
Rises 23:35:52 0° 266° (W) 2,496 ? -23.5°
Reaches altitude 10° 23:38:08 10° 274° (W) 1,619 ? -23.6°
Maximum altitude 23:41:33 37° 344° (NNW) 739 ? -23.6°
Drops below altitude 10° 23:44:58 10° 53° (NE) 1,614 ? -23.7°
Sets 23:47:13 0° 62° (ENE) 2,488 ? -23.7°
